Regional Weather Roundup
Issued by NWS

Home | Current Version | Previous Version | Graphics & Text | Print | Product List | Glossary On
Versions: 1 2 3 4 5 6 7 8 9 10 11 12 13 14 15 16 17 18 19 20 21 22 23 24 25 26 27 28 29 30 31 32 33 34 35 36 37 38 39 40 41 42 43 44 45 46 47 48 49 50
000
ASUS45 KTFX 300010
RWRMT
MONTANA REGIONAL WEATHER ROUNDUP
NATIONAL WEATHER SERVICE GREAT FALLS MT
600 PM MDT FRI MAY 29 2015

NOTE: "FAIR" INDICATES FEW OR NO CLOUDS BELOW 12000 FEET WITH NO
SIGNIFICANT WEATHER AND/OR OBSTRUCTIONS TO VISIBILITY.

MTZ001>007-043-300100-
WEST OF THE DIVIDE

CITY           SKY/WX    TMP DP  RH WIND       PRES   REMARKS
KALISPELL      PTCLDY    74  42  31 S8        29.99F
MISSOULA       PTSUNNY   69  48  47 NW13      30.02F
BUTTE          MOSUNNY   65  43  44 SE9       30.13F
MULLAN PASS    CLOUDY    61  42  49 CALM      30.12F
DEER LODGE       N/A     70  46  43 NW5       30.12F
EUREKA           N/A     57  54  88 NW10      30.07R
HAMILTON         N/A     75  45  33 NW7       30.02S
LIBBY            N/A     75  50  41 NW9       29.97F
PLAINS           N/A     77  50  38 W2        29.98F
RONAN            N/A     75  46  35 W3        30.07S
THOMPSON FALLS   N/A     73  59  61 E6        30.01S
$$

MTZ008-052>055-300100-
SOUTHWEST MONTANA

CITY           SKY/WX    TMP DP  RH WIND       PRES   REMARKS
BOZEMAN        SUNNY     69  48  47 E3        30.11F
DILLON         MOSUNNY   70  40  33 CALM      30.10F
W YELLOWSTONE  MOSUNNY   63  36  36 SW10G16   30.22S
THREE FORKS      N/A     70  70 100 SE3       30.09F
$$

MTZ009-010-012-014-046-048-049-054-300100-
EAST SLOPES AND CENTRAL MONTANA

CITY           SKY/WX    TMP DP  RH WIND       PRES   REMARKS
CUT BANK       MOSUNNY   61  47  59 SE12      30.13F
GREAT FALLS    MOSUNNY   67  50  54 E12       30.09F
MALMSTROM AFB  MOSUNNY   66  52  60 NE9       30.10F
HELENA         MOSUNNY   71  46  40 E15       30.08F
CONRAD           N/A     63  53  69 E7        30.14F
$$

MTZ011-013-016-021-045-047-050-051-300100-
NORTH CENTRAL MONTANA

CITY           SKY/WX    TMP DP  RH WIND       PRES   REMARKS
HAVRE          CLOUDY    65  45  48 E13       30.15F
LEWISTOWN      SUNNY     64  46  52 E13       30.17F
N BAR RANCH    FAIR      57  45  62 S12G20    30.24F
CHINOOK          N/A     63  39  42 E15       30.17F
FORT BENTON      N/A     66  48  52 E15G21    30.12F
$$

MTZ017>020-022>027-061-062-300100-
NORTHEAST MONTANA

CITY           SKY/WX    TMP DP  RH WIND       PRES   REMARKS
GLASGOW        SUNNY     60  31  33 E5        30.25F
JORDAN           N/A     60  28  29 VRB5      30.25F
SIDNEY         SUNNY     61  30  31 CALM      30.27F
WOLF POINT     SUNNY     61  30  31 VRB3      30.27F
MALTA            N/A     62  33  33 E6        30.19F
PLENTYWOOD       N/A     57  27  30 N5        30.28S
POPLAR           N/A     61  27  27 E7        30.27F
SCOBEY           N/A     58  29  33 NE5       30.25F
$$

MTZ028>42-056>058-300100-
SOUTHCENTRAL AND SOUTHEAST MONTANA

CITY           SKY/WX    TMP DP  RH WIND       PRES   REMARKS
BAKER          SUNNY     59  31  34 N6        30.26F
BILLINGS       MOSUNNY   61  46  57 E10       30.21F
LIVINGSTON     SUNNY     60  46  59 E20       30.17F
MILES CITY     SUNNY     63  28  26 VRB5      30.25S
BIG TIMBER       N/A     55  45  67 NE13      30.22F
EKALAKA          N/A     57  29  34 N6        30.22F
LAUREL           N/A     61  47  59 NE5       30.18F
ROUNDUP          N/A     62  42  47 E6        30.11F
$$

REGIONAL REPORTS...DAKOTAS

CITY           SKY/WX    TMP DP  RH WIND       PRES   REMARKS
WILLISTON      SUNNY     59  31  34 VRB3      30.28F
MINOT          SUNNY     56  31  38 NW8       30.27S
DICKINSON      SUNNY     56  35  45 NE10      30.26S
BEACH          FAIR      57  32  38 N8        30.28S
CROSBY         FAIR      55  28  35 N6        30.30S
WATFORD CITY   FAIR      55  32  41 NE6       30.26F
BISMARCK       SUNNY     57  34  41 N13       30.26S
GRAND FORKS    MOSUNNY   54  35  48 N22G32    30.20R
FARGO          MOSUNNY   56  37  49 N22G32    30.15S
BUFFALO SD       N/A     56  39  53 NE10      30.20F
RAPID CITY     PTSUNNY   57  41  55 N14       30.26F
$$

REGIONAL REPORTS...WYOMING/IDAHO/WASHINGTON

CITY           SKY/WX    TMP DP  RH WIND       PRES   REMARKS
GILLETTE       MOSUNNY   57  32  38 N9        30.28S
SHERIDAN       MOSUNNY   57  45  64 VRB6      30.26F
BUFFALO WY     PTSUNNY   52  43  71 CALM      30.29F
CODY           PTSUNNY   63  46  55 E7        30.21F
YELLOWSTONE LA   N/A     50  43  77 CALM      30.31S
IDAHO FALLS    MOSUNNY   71  44  37 VRB7      30.15F
SALMON           N/A     75  46  35 W6        30.01F
BOISE          MOSUNNY   84  33  16 VRB5      29.98F
SPOKANE        MOSUNNY   80  42  25 NE3       29.94F
$$

REGIONAL REPORTS...ALBERTA

CITY           SKY/WX    TMP DP  RH WIND       PRES   REMARKS
EDMONTON       MOSUNNY   57  30  35 S14       30.21F
CALGARY        LGT RAIN  52  48  87 S12       30.15F
MEDICINE HAT   PTSUNNY   70  34  26 SE7       30.13F
$$

REGIONAL REPORTS...SASKATCHEWAN

CITY           SKY/WX    TMP DP  RH WIND       PRES   REMARKS
SWIFT CURRENT  PTSUNNY   55  27  33 E12       30.26S
REGINA         PTSUNNY   54  27  35 NE12      30.31S
SASKATOON      PTSUNNY   55  23  28 NE5       30.34F
$$



USA.gov is the U.S. government's official web portal to all federal, state and local government web resources and services.